Regional Weather Roundup
Issued by NWS Upton, NY

Current Version | Previous Version | Text Only | Print | Product List | Glossary On
Versions: 1 2 3 4 5 6 7 8 9 10 11 12 13 14 15 16 17 18 19 20 21 22 23 24 25 26 27 28 29 30 31 32 33 34 35 36 37 38 39 40 41 42 43 44 45 46 47 48 49 50
000
ASUS41 KOKX 282108
RWROKX

REGIONAL WEATHER ROUNDUP
NATIONAL WEATHER SERVICE NEW YORK NY
500 PM EDT SUN MAY 28 2017

NOTE: "FAIR" INDICATES FEW OR NO CLOUDS BELOW 12,000 FEET WITH NO
SIGNIFICANT WEATHER AND/OR OBSTRUCTIONS TO VISIBILITY.

NYZ071-072-176-178-NJZ106-104-282200-
NEW YORK CITY METRO AREA

CITY           SKY/WX    TMP DP  RH WIND       PRES   REMARKS
Central Park   PTSUNNY   67  55  65 VRB6      29.96R
Wall St Helipt MOCLDY    66  54  63 SE10      29.95R
Bronx Bot Gard   N/A     68  52  56 SE3       29.95R
LaGuardia APRT CLOUDY    69  51  52 S14       29.93R
Kennedy INTL   CLOUDY    65  55  70 SE10      29.95S
Breezy Point     N/A     61 N/A N/A SE9         N/A
Newark/Liberty CLOUDY    68  55  63 SE10G17   29.92S
Teterboro      CLOUDY    70  55  59 S10       29.92R
$$

NYZ177-179-078>081-282200-
LONG ISLAND NEW YORK

CITY           SKY/WX    TMP DP  RH WIND       PRES   REMARKS
Jones Beach      N/A     59 N/A N/A SE10        N/A
Matinecock PT    N/A     68 N/A N/A SE5G10      N/A
Farmingdale    CLOUDY    64  50  60 SE12      29.95S
MacArthur/ISP  CLOUDY    64  50  60 E12       29.95F
Shirley        CLOUDY    63  51  65 SE9       29.96F
Mt Sinai Harb    N/A    N/A N/A N/A S10         N/A
Westhampton    CLOUDY    61  48  62 SE9       29.98F
East Hampton     N/A     60  50  69 SE8       29.97F
Montauk          N/A     61  52  72 VRB3      29.99F
$$

NYZ052-065-067-282200-
HUDSON VALLEY

CITY           SKY/WX    TMP DP  RH WIND       PRES   REMARKS
White Plains   PTSUNNY   66  54  65 SE9       29.93S
Larchmont Harb   N/A     64 N/A N/A SE13        N/A
Croton O-T Hud   N/A     68 N/A N/A SE9         N/A
Newburgh       CLOUDY    70  61  73 SE12G17   29.92F
Montgomery     PTSUNNY   71  57  61 S9        29.90S
Poughkeepsie   CLOUDY    70  57  63 S9        29.90S
Albany         CLOUDY    72  56  57 S10       29.88F
$$

NJZ001-105-106-008-010-013-015-019>022-104-282200-
NEW JERSEY

CITY           SKY/WX    TMP DP  RH WIND       PRES   REMARKS
Newark/Liberty CLOUDY    68  55  63 SE10G17   29.92S
Teterboro      CLOUDY    70  55  59 S10       29.92R
Caldwell       CLOUDY    71  54  54 SE10G17   29.92S
Somerville     PTSUNNY   73  57  57 S8        29.87S
Linden           N/A     66  55  67 SE9G16    29.93R
Perth Amboy      N/A     63 N/A N/A E15G22      N/A
Sussex         CLOUDY    70  56  61 SE10      29.91R
Andover          N/A     69  56  62 VRB5      29.90R
Trenton        CLOUDY    73  57  57 SE13G21   29.87F
Millville      CLOUDY    68  60  75 E12       29.88S
Atlantic City  CLOUDY    65 N/A N/A E13       29.90S
Wrightstown    NOT AVBL
Toms River     CLOUDY    66  58  75 E10       29.92R
Belmar         PTSUNNY   64  56  75 SE12      29.94R
$$

PAZ047>061-062-071-282200-
EASTERN PENNSYLVANIA

CITY           SKY/WX    TMP DP  RH WIND       PRES   REMARKS
Philadelphia   CLOUDY    73  56  54 SE10      29.87S
Allentown      CLOUDY    73  57  57 SE7       29.87R
Scranton       CLOUDY    72  55  55 VRB6      29.86R
$$

CTZ002-004>006-009-010-012-RIZ004-006-007-MAZ004-011-015-282200-
SOUTHERN NEW ENGLAND
 IN CT

CITY           SKY/WX    TMP DP  RH WIND       PRES   REMARKS
Bradley INTL   CLOUDY    70  56  61 S13       29.93F
Hartford       CLOUDY    68  56  65 S9        29.94S
Danbury        PTSUNNY   65  56  72 SE8G17    29.94S
Wtrbury/Oxford CLOUDY    64  52  63 S10       29.96F
Bridgeport     CLOUDY    67  52  58 SE8       29.95S
Meriden        PTSUNNY   66  51  58 S12       29.95F
New Haven      CLOUDY    64  50  60 SE8       29.96F
Chester          N/A     64  48  55 S9        29.97F
Groton         CLOUDY    62  52  69 S7        29.98F
Wilimantic     CLOUDY    68  52  56 S10       29.97S

 IN RI

CITY           SKY/WX    TMP DP  RH WIND       PRES   REMARKS
Providence     CLOUDY    64  52  64 S13       29.99S
Block Island   PTSUNNY   58  52  80 SE12      30.00S
Westerly       PTSUNNY   62  51  67 SE9       30.00F
 IN MA

CITY           SKY/WX    TMP DP  RH WIND       PRES   REMARKS
Boston         CLOUDY    60  54  80 N5        29.98S
Worcester      CLOUDY    64  52  64 S9        29.97S
Westfield      NOT AVBL
Provincetown   CLOUDY    57  50  77 S14       30.01S
Nantucket      CLOUDY    53  47  79 SE14      30.02F
$$

ANZ330-335-338-340-345-350-353-355-282200-
COASTAL MARINE OBSERVATIONS


STATION/POSITION TIME  SKY/WX   TEMP    WIND        PRES    VSBY  WAVE
                                AIR SEA DIR/SP/G                  HT/PER
                 (UTC)          (F)     (DEG/KT/KT) (MB)    (MI)  (FT/S)
NY HARB ENTRANCE 1950            60 60  120/ 10/ 12 1013.6          2/ 7
20 S FIRE ISLAND 2050            59 58  110/ 12/ 14 1013.0          2/ 7
GREAT SOUTH BAY  2030            60 65  120/  8/ 12   N/A
23 SSW MONTAUK P 1950            57 57              1015.9          2/ 8
15 E BARNEGAT LI 2030               60                N/A           2/ 8
HUDSON CANYON    1950            59 57  110/ 10/ 12 1013.9          3/ 8
KINGS POINT      2048            66 61  170/  6/ 10 1013.5
EXECUTION ROCKS  2045            66                   N/A
CENTRAL LI SOUND NOT AVBL
EASTERN LI SOUND NOT AVBL
ROBBINS REEF     2048            63     150/ 10/ 13 1014.3
$$


>>>>>>>>>>>>>>>>>>>>>>>>>>>> KEY <<<<<<<<<<<<<<<<<<<<<<<<<<<
>                                                          <
>     SKY/WX - Sky Condition/Present Weather               <
>     TMP    - Temperature in Fahrenheit                   <
>     DP     - Dew Point in Fahrenheit                     <
>     RH     - Relative Humidity in Percent                <
>     WIND   - Direction (from) and Speed in MPH           <
>     PRES   - Mean Sea Level Pressure (inches of Hg)      <
>     WCI    - Wind Chill Index                            <
>     VSB    - VISIBILITY IN MILES                         <
>     HX     - HEAT INDEX                                  <
>     TC     - TEMPERATURE IN CELSIUS                      <
>     VRB    - VARIABLE WIND DIRECTION                     <
>                                                          <
>>>>>>>>>>>>>>>>>>>>>>>>>>>> KEY <<<<<<<<<<<<<<<<<<<<<<<<<<<



USA.gov is the U.S. government's official web portal to all federal, state and local government web resources and services.